カタログに戻る

SL-3 DEB

運用中PO
NORAD 15521·DEBRIS·🇷🇺 Russia

打ち上げ Oct 28, 1974 から Plesetsk Cosmodrome

Loading…

次のパス (今後24時間)

TLE

最新Source: Space-Track

元期: Sep 13, 2026, 15:17 UTC

1 15521U 74083C   26256.63718422  .00000056  00000-0  24664-4 0  9997
2 15521  81.2118 100.9589 0055833 222.0403 201.9647 14.09700505670795

AllMySatでSL-3 DEBをリアルタイム追跡

Download on the App Store